KUOPIO_(MIL/CIV) current weather conditions

sailwx.info

Wind from 190 at 6 knots

Air temperature 1.0° C
Visibility: greater than 5.4 NM
Dewpoint 1.0° C
Present weather: Light rain snow.

Last reported at 2020-Jan-17 18:50 UTC.
Time now 2020-Jan-17 20:18 UTC

Location: N 63°01' E 027°48'.
View on Google Maps.

See reports from other nearby stations

  
Tides and Currents Weather Stations Pressure Air Temp Water Temp Dewpoint Dewpoint Depression Visibility Wind Speed Wind Dir Waves Ship Positions
date/time (UTC)wind fromknots sea level pressurealtimeterstation pressurevisibilityair tempwater tempwave heightnotes
2020-Jan-17 18:50 190 6 5.4 1.0 Light rain snow.
2020-Jan-17 18:20 200 6 5.4 2.0 Light rain.
2020-Jan-17 17:50 210 6 5.4 2.0 Light rain.
2020-Jan-17 17:20 200 6 5.4 2.0 Light rain showers.
2020-Jan-17 16:50 220 7 5.4 3.0 Light rain showers.
2020-Jan-17 16:20 240 6 5.4 3.0
2020-Jan-17 15:50 230 5 5.4 3.0
2020-Jan-17 15:20 230 5 5.4 2.0
2020-Jan-17 14:50 240 4 5.4 2.0
2020-Jan-17 14:20 240 6 5.4 2.0
2020-Jan-17 13:50 230 6 5.4 2.0
2020-Jan-17 13:20 240 6 5.4 2.0
2020-Jan-17 12:50 230 5 5.4 2.0
2020-Jan-17 12:20 230 5 5.4 2.0
2020-Jan-17 11:50 240 6 5.4 2.0
2020-Jan-17 11:20 240 7 5.4 2.0
2020-Jan-17 10:50 250 6 5.4 2.0
2020-Jan-17 10:20 240 6 5.4 2.0
2020-Jan-17 09:50 230 7 5.4 2.0
2020-Jan-17 09:20 230 7 5.4 2.0
2020-Jan-17 08:50 240 9 5.4 1.0
2020-Jan-17 08:20 240 8 5.4 1.0
2020-Jan-17 07:50 240 9 5.4 1.0
2020-Jan-17 07:20 250 6 5.4 1.0
2020-Jan-17 06:50 240 8 5.4 1.0
2020-Jan-17 06:20 240 9 5.4 1.0
2020-Jan-17 05:50 250 11 5.4 1.0
2020-Jan-17 05:20 240 8 5.4 1.0
2020-Jan-17 04:50 240 9 5.4 1.0
2020-Jan-17 04:20 250 11 5.4 2.0
2020-Jan-17 03:50 240 12 5.4 2.0
2020-Jan-17 03:20 250 11 5.4 2.0
2020-Jan-17 02:50 250 13 5.4 2.0
2020-Jan-17 02:20 230 13 5.4 2.0
2020-Jan-17 01:50 220 6 5.4 2.0
2020-Jan-17 01:20 210 8 5.4 2.0
2020-Jan-17 00:50 210 7 5.4 2.0
2020-Jan-17 00:20 220 9 5.4 2.0
2020-Jan-16 23:50 240 6 5.4 3.0
2020-Jan-16 23:20 250 6 5.4 3.0
2020-Jan-16 22:50 250 8 5.4 3.0
2020-Jan-16 22:20 240 8 5.4 3.0
2020-Jan-16 21:50 240 6 5.4 3.0
2020-Jan-16 21:20 220 6 5.4 3.0
2020-Jan-16 20:50 230 7 5.4 3.0
2020-Jan-16 20:20 210 6 5.4 2.0 Light rain showers.
2020-Jan-16 19:50 190 6 5.4 2.0 Light rain showers.
2020-Jan-16 19:20 190 5 5.4 2.0
2020-Jan-16 18:50 180 5 5.4 2.0
2020-Jan-16 18:20 180 5 5.4 1.0
2020-Jan-16 17:50 5.4 2.0
2020-Jan-16 17:20 210 2 5.4 2.0
2020-Jan-16 16:50 250 2 5.4 2.0
2020-Jan-16 16:20 270 5 5.4 2.0
2020-Jan-16 15:50 270 6 5.4 2.0
2020-Jan-16 15:20 280 4 5.4 2.0
2020-Jan-16 14:50 280 6 5.4 2.0
2020-Jan-16 14:20 280 6 5.4 2.0
2020-Jan-16 13:50 290 5 5.4 2.0
2020-Jan-16 13:20 280 6 5.4 2.0
2020-Jan-16 12:50 290 8 5.4 2.0
2020-Jan-16 12:20 290 6 5.4 2.0
2020-Jan-16 11:50 290 6 5.4 2.0
2020-Jan-16 11:20 280 6 5.4 2.0
2020-Jan-16 10:50 280 6 5.4 2.0
2020-Jan-16 10:20 280 7 5.4 2.0
2020-Jan-16 09:50 270 7 5.4 2.0
2020-Jan-16 09:20 260 9 5.4 2.0
2020-Jan-16 08:50 260 9 5.4 2.0
2020-Jan-16 08:20 260 7 5.4 1.0
2020-Jan-16 07:50 260 7 5.4 1.0
2020-Jan-16 07:20 250 9 5.4 1.0
2020-Jan-16 06:50 250 6 5.4 1.0
2020-Jan-16 06:20 260 8 5.4 1.0
2020-Jan-16 05:50 260 9 5.4 1.0
2020-Jan-16 05:20 250 8 5.4 2.0
2020-Jan-16 04:50 240 9 5.4 2.0
2020-Jan-16 04:20 240 7 5.4 2.0
2020-Jan-16 03:50 230 7 5.4 2.0
2020-Jan-16 03:20 240 7 5.4 2.0
2020-Jan-16 02:50 240 8 5.4 3.0
2020-Jan-16 02:20 240 7 5.4 3.0
2020-Jan-16 01:50 240 8 5.4 3.0
2020-Jan-16 01:20 240 7 5.4 3.0
2020-Jan-16 00:50 230 6 5.4 3.0
2020-Jan-16 00:20 260 7 5.4 3.0
2020-Jan-15 23:50 250 9 5.4 3.0 Light rain showers.
2020-Jan-15 23:20 240 6 5.4 3.0 Light rain showers.
2020-Jan-15 22:50 260 7 5.4 3.0
2020-Jan-15 22:20 260 11 5.4 3.0
2020-Jan-15 21:50 270 13 5.4 3.0
2020-Jan-15 21:20 260 13 5.4 3.0
2020-Jan-15 20:50 260 17 5.4 4.0
2020-Jan-15 20:20 250 15 5.4 4.0